Wrangell, AK

10:22 AM AKST on December 07, 2016 (GMT -0900)
Wrangell

Weather History for PAWG - October, 2011

Change the Weather History Date:

Friday, October 28, 2011

  Actual Average Record
Temperature  
Mean Temperature 44 °F -  
Max Temperature 46 °F 44 °F 58 °F (1952)
Min Temperature 42 °F 34 °F 22 °F (1991)
Degree Days  
Heating Degree Days 21    
Moisture  
Dew Point 37 °F    
Average Humidity 78    
Maximum Humidity 87    
Minimum Humidity 62    
Precipitation  
Precipitation 0.00 in - - ()
Sea Level Pressure  
Sea Level Pressure 29.20 in    
Wind  
Wind Speed 18 mph (SE)    
Max Wind Speed 32 mph    
Max Gust Speed 46 mph    
Visibility 7 miles    
Events      
Averages and records for this station are not official NWS values.
T = Trace of Precipitation, MM = Missing Value Source: NWS Daily Summary

Daily Weather History Graph

Daily Weather History Graph

Search for Another Location

Airport or City:

Trip Planner

Search our weather history database for the weather conditions in past years. The results will help you decide how hot, cold, wet, or windy it might be!

Date:

Astronomy

Oct. 28, 2011 Rise Set
Actual Time 7:49 AM AKDT 5:16 PM AKDT
Civil Twilight 7:09 AM AKDT 5:55 PM AKDT
Nautical Twilight 6:25 AM AKDT 6:40 PM AKDT
Astronomical Twilight 5:41 AM AKDT 7:23 PM AKDT
Moon 10:51 AM AKDT (10/28) 6:06 PM AKDT (10/28)
Length of Visible Light 10h 46m
Length of Day
9h 27m
Waxing Crescent, 6% of the Moon is Illuminated
Oct 28
Waxing Crescent
Nov 2
First Quarter
Nov 10
Full
Nov 18
Last Quarter
Nov 24
New

Hourly Weather History & Observations

Time (AKDT) Temp. Windchill Dew Point Humidity Pressure Visibility Wind Dir Wind Speed Gust Speed Precip Events Conditions
12:16 AM 46.4 °F 40.7 °F 33.8 °F 62% 29.20 in 10.0 mi East 12.7 mph 31.1 mph N/A   Overcast
12:36 AM 44.6 °F 38.4 °F 35.6 °F 71% 29.16 in 10.0 mi East 12.7 mph 21.9 mph N/A   Overcast
12:56 AM 46.4 °F 38.3 °F 33.8 °F 62% 29.12 in 10.0 mi ENE 23.0 mph 28.8 mph N/A   Overcast
1:16 AM 44.6 °F 37.8 °F 35.6 °F 71% 29.12 in 10.0 mi East 15.0 mph 28.8 mph N/A   Overcast
1:36 AM 44.6 °F 37.4 °F 35.6 °F 71% 29.10 in 10.0 mi East 16.1 mph 23.0 mph N/A   Overcast
1:56 AM 44.6 °F 37.8 °F 35.6 °F 71% 29.08 in 10.0 mi East 15.0 mph 23.0 mph N/A   Overcast
2:16 AM 44.6 °F 37.8 °F 35.6 °F 71% 29.06 in 10.0 mi East 15.0 mph 20.7 mph N/A   Overcast
2:36 AM 46.4 °F 40.1 °F 35.6 °F 66% 29.03 in 10.0 mi East 15.0 mph 23.0 mph N/A   Overcast
2:56 AM 46.4 °F 39.5 °F 35.6 °F 66% 29.01 in 10.0 mi East 17.3 mph - N/A   Overcast
3:16 AM 46.4 °F 39.5 °F 35.6 °F 66% 29.00 in 10.0 mi ESE 17.3 mph - N/A   Overcast
3:36 AM 46.4 °F 38.3 °F 37.4 °F 71% 28.99 in 10.0 mi ESE 23.0 mph 29.9 mph N/A   Overcast
3:56 AM 44.6 °F 35.5 °F 37.4 °F 76% 28.99 in 9.0 mi ESE 25.3 mph 35.7 mph N/A   Overcast
4:16 AM 44.6 °F 35.3 °F 37.4 °F 76% 28.99 in 8.0 mi ESE 26.5 mph 32.2 mph N/A   Overcast
4:36 AM 44.6 °F 35.7 °F 37.4 °F 76% 29.00 in 7.0 mi ESE 24.2 mph 34.5 mph N/A   Overcast
4:56 AM 44.6 °F 35.5 °F 37.4 °F 76% 29.02 in 5.0 mi SE 25.3 mph 36.8 mph N/A   Overcast
5:16 AM 44.6 °F 35.3 °F 37.4 °F 76% 29.02 in 4.0 mi ESE 26.5 mph 35.7 mph N/A   Overcast
5:36 AM 44.6 °F 35.7 °F 37.4 °F 76% 29.02 in 5.0 mi ESE 24.2 mph 31.1 mph N/A   Overcast
5:56 AM 44.6 °F 35.3 °F 37.4 °F 76% 29.02 in 5.0 mi ESE 26.5 mph 36.8 mph N/A   Overcast
6:16 AM 44.6 °F 34.6 °F 37.4 °F 76% 29.02 in 5.0 mi ESE 31.1 mph 39.1 mph N/A   Overcast
6:36 AM 44.6 °F 36.4 °F 37.4 °F 76% 29.04 in 5.0 mi ESE 20.7 mph 31.1 mph N/A   Overcast
6:56 AM 44.6 °F 35.5 °F 37.4 °F 76% 29.03 in 5.0 mi ESE 25.3 mph 34.5 mph N/A   Overcast
7:16 AM 44.6 °F 35.7 °F 37.4 °F 76% 29.04 in 5.0 mi ESE 24.2 mph 38.0 mph N/A   Overcast
7:36 AM 44.6 °F 35.3 °F 37.4 °F 76% 29.04 in 5.0 mi ESE 26.5 mph 36.8 mph N/A   Overcast
7:56 AM 44.6 °F 35.3 °F 37.4 °F 76% 29.05 in 5.0 mi ESE 26.5 mph 34.5 mph N/A   Overcast
8:16 AM 42.8 °F 32.9 °F 37.4 °F 81% 29.05 in 5.0 mi ESE 26.5 mph 38.0 mph N/A   Overcast
8:36 AM 42.8 °F 32.5 °F 37.4 °F 81% 29.06 in 5.0 mi ESE 28.8 mph 40.3 mph N/A   Overcast
8:56 AM 42.8 °F 32.5 °F 35.6 °F 76% 29.07 in 5.0 mi ESE 28.8 mph 46.0 mph N/A   Overcast
9:16 AM 42.8 °F 32.7 °F 37.4 °F 81% 29.08 in 5.0 mi ESE 27.6 mph 46.0 mph N/A   Overcast
9:36 AM 42.8 °F 31.9 °F 37.4 °F 81% 29.08 in 5.0 mi ESE 32.2 mph 43.7 mph N/A   Overcast
9:56 AM 42.8 °F 32.9 °F 37.4 °F 81% 29.11 in 7.0 mi ESE 26.5 mph 38.0 mph N/A   Overcast
10:16 AM 42.8 °F 32.5 °F 35.6 °F 76% 29.12 in 7.0 mi ESE 28.8 mph 46.0 mph N/A   Overcast
10:36 AM 42.8 °F 32.7 °F 37.4 °F 81% 29.13 in 7.0 mi ESE 27.6 mph 40.3 mph N/A   Overcast
10:56 AM 42.8 °F 32.7 °F 37.4 °F 81% 29.15 in 7.0 mi ESE 27.6 mph 38.0 mph N/A   Overcast
11:16 AM 42.8 °F 33.1 °F 37.4 °F 81% 29.17 in 7.0 mi SE 25.3 mph 32.2 mph N/A   Overcast
11:36 AM 42.8 °F 34.0 °F 37.4 °F 81% 29.20 in 7.0 mi ESE 20.7 mph 32.2 mph N/A   Overcast
11:56 AM 42.8 °F 34.0 °F 37.4 °F 81% 29.21 in 7.0 mi ESE 20.7 mph 26.5 mph N/A   Overcast
12:16 PM 42.8 °F 36.2 °F 37.4 °F 81% 29.25 in 7.0 mi SE 12.7 mph 23.0 mph N/A   Overcast
12:36 PM 42.8 °F 37.5 °F 37.4 °F 81% 29.27 in 7.0 mi South 9.2 mph 17.3 mph N/A   Overcast
12:56 PM 42.8 °F 40.1 °F 37.4 °F 81% 29.28 in 7.0 mi SE 4.6 mph - N/A   Overcast
1:16 PM 42.8 °F 38.6 °F 37.4 °F 81% 29.30 in 7.0 mi SSE 6.9 mph - N/A   Overcast
1:36 PM 42.8 °F 37.0 °F 37.4 °F 81% 29.31 in 10.0 mi SSE 10.4 mph - N/A   Overcast
1:56 PM 42.8 °F 38.0 °F 39.2 °F 87% 29.33 in 10.0 mi SSE 8.1 mph - N/A   Overcast
2:16 PM 42.8 °F 39.3 °F 39.2 °F 87% 29.34 in 10.0 mi SE 5.8 mph - N/A   Overcast
2:36 PM 42.8 °F 38.6 °F 37.4 °F 81% 29.35 in 10.0 mi SE 6.9 mph - N/A   Overcast
2:56 PM 42.8 °F 40.1 °F 37.4 °F 81% 29.37 in 10.0 mi SSE 4.6 mph - N/A   Overcast
3:16 PM 44.6 °F 42.2 °F 37.4 °F 76% 29.38 in 7.0 mi South 4.6 mph - N/A   Overcast
3:36 PM 44.6 °F 39.7 °F 39.2 °F 81% 29.40 in 7.0 mi South 9.2 mph - N/A   Overcast
3:56 PM 44.6 °F 42.2 °F 39.2 °F 81% 29.41 in 7.0 mi SSW 4.6 mph - N/A   Overcast
4:16 PM 44.6 °F 40.7 °F 39.2 °F 81% 29.43 in 7.0 mi SSW 6.9 mph - N/A   Overcast
4:36 PM 44.6 °F 38.4 °F 39.2 °F 81% 29.45 in 7.0 mi WNW 12.7 mph 19.6 mph N/A   Overcast
4:56 PM 44.6 °F 38.8 °F 39.2 °F 81% 29.47 in 7.0 mi West 11.5 mph - N/A   Overcast
5:16 PM 44.6 °F 40.2 °F 39.2 °F 81% 29.49 in 7.0 mi West 8.1 mph - N/A   Overcast
5:36 PM 44.6 °F 43.1 °F 39.2 °F 81% 29.51 in 7.0 mi West 3.5 mph - N/A   Overcast
5:56 PM 44.6 °F 40.7 °F 39.2 °F 81% 29.52 in 7.0 mi WSW 6.9 mph - N/A   Overcast
6:16 PM 44.6 °F 40.7 °F 39.2 °F 81% 29.54 in 7.0 mi WSW 6.9 mph - N/A   Overcast
6:36 PM 44.6 °F - 39.2 °F 81% 29.56 in 7.0 mi Calm Calm - N/A   Overcast
6:56 PM 42.8 °F 37.0 °F 39.2 °F 87% 29.57 in 7.0 mi ESE 10.4 mph - N/A   Overcast
7:16 PM 42.8 °F 37.5 °F 39.2 °F 87% 29.58 in 7.0 mi ESE 9.2 mph - N/A   Overcast
7:36 PM 44.6 °F 41.4 °F 39.2 °F 81% 29.59 in 7.0 mi ESE 5.8 mph - N/A   Overcast
7:56 PM 42.8 °F 39.3 °F 39.2 °F 87% 29.60 in 8.0 mi SSE 5.8 mph - N/A   Overcast
8:16 PM 42.8 °F 39.3 °F 39.2 °F 87% 29.62 in 8.0 mi SE 5.8 mph - N/A   Overcast
8:36 PM 42.8 °F 40.1 °F 39.2 °F 87% 29.63 in 8.0 mi SSE 4.6 mph - N/A   Overcast
8:56 PM 44.6 °F 41.4 °F 39.2 °F 81% 29.64 in 8.0 mi SSE 5.8 mph - N/A   Overcast
9:16 PM 44.6 °F 40.2 °F 39.2 °F 81% 29.64 in 8.0 mi ESE 8.1 mph - N/A   Overcast
9:36 PM 44.6 °F 40.7 °F 39.2 °F 81% 29.65 in 8.0 mi East 6.9 mph - N/A   Overcast
9:56 PM 44.6 °F 39.7 °F 39.2 °F 81% 29.66 in 8.0 mi East 9.2 mph - N/A   Overcast
10:16 PM 44.6 °F 41.4 °F 39.2 °F 81% 29.67 in 8.0 mi ESE 5.8 mph - N/A   Overcast
10:36 PM 44.6 °F 39.7 °F 39.2 °F 81% 29.68 in 8.0 mi East 9.2 mph - N/A   Overcast
10:56 PM 44.6 °F 38.4 °F 41.0 °F 87% 29.68 in 8.0 mi East 12.7 mph - N/A   Overcast
11:16 PM 44.6 °F 38.4 °F 39.2 °F 81% 29.68 in 10.0 mi East 12.7 mph - N/A   Overcast
11:36 PM 44.6 °F 39.2 °F 39.2 °F 81% 29.68 in 10.0 mi East 10.4 mph - N/A   Overcast
11:56 PM 44.6 °F 40.7 °F 39.2 °F 81% 29.69 in 10.0 mi SE 6.9 mph - N/A   Overcast